Retour au catalogue

GORIZONT 2

ActifCommunicationsGEO
NORAD 11440·PAYLOAD·🇷🇺 Russia

Lancé Jul 5, 1979 depuis Baikonur Cosmodrome

Loading…

TLE

FraisSource: Space-Track

Époque: Sep 14, 2026, 14:05 UTC

1 11440U 79062A   26257.58697440  .00000038  00000-0  00000-0 0  9990
2 11440   5.5213 285.0129 0006049 336.2149   3.4465  1.00267983138912

Suivez GORIZONT 2 en temps réel avec AllMySat

Download on the App Store